THOR ABLESTAR DEB, 5715

Orbit data source: Space-Track

THOR ABLESTAR DEB, 5715 is space debris in LEO originally from a launch on Thu, 29 Jun 1961 UTC launched from the Air Force Eastern Test Range (AFETR). Debris objects in space refer to the collection of defunct objects orbiting the Earth. Examples of debris include non-operational satellites, rocket bodies, and fragments generated from explosions, collisions, or faulty payload assembly.

Loading next visibility...
Identifier
5715, 1961-015JS
Orbit
LEO
Country
Flag of USUS
Related business
Manufacturer
Unknown
Mission
Spacecraft
Bus & Motor
Unknown
Mass
Unknown
Launch date (UTC)
1961-06-29 (64 years ago)
Launch vehicle
Unknown
Launch site
Air Force Eastern Test Range (AFETR)
Object type
Payload
Rocket body
Debris
Shape & HBR
Unknown shape, 0.1 m
Radar Cross Section
Small (<0.1 m²)

Expand to show TLE details & history
Last TLE update: 1 day ago

TLE from 1 day ago
0 THOR ABLESTAR DEB
1 05715U 61015JS  25340.04152453  .00001200  00000-0  14722-2 0  9990
2 05715  66.5618 192.7699 0156110 182.4084 330.0883 13.63989563175388
Epoch: 2025-12-06T00:59Z
TLE epoch observation values (Epoch: 2025-12-06T00:59:47.719Z)
Latitude
25.93137°
Longitude
-89.35855°
Altitude
923.829 km
Speed
7.442 km/s
True Right ascension
00h 02m 39s
True Declination
25° 47' 58"
Sunlit
Object was in daylight at epoch
Visualization orbit readout
Latitude
Unknown
Longitude
Unknown
Altitude
Unknown
Speed
Unknown
Apparent Right ascension
Unknown
Apparent Declination
Unknown
Sunlit
N/A
Visualization observer readout
Local Sidereal Time
08:16:11
Azimuth
Unknown
Elevation
Unknown
Doppler factor
Unknown
Orbital elements
Apogee altitude
1,135.156 km
Perigee altitude
904.182 km
Semi-major axis
7,397.806 km
Eccentricity
0.01561
Inclination
66.5618°
RAAN
192.7699°
Arg. of periapsis
182.4084°
True anomaly
329.18094°
Mean anomaly
330.0883°
Eccentric anomaly
329.63617°
Mean motion
3.41106 °/min
Orbital period
105.54 mins
BSTAR
0.0014722
Loading maneuver chart data...
Computing Atmospheric mass density...
Loading historical data...
Loading historical data...
Loading historical data...
Loading historical data...
Loading historical data...
Loading historical data...
Loading historical data...

Documentation

Showing up to 5 results
|